Weather History for KFLY - December, 2012

Change the Weather History Date:

Tuesday, December 25, 2012

  Actual Average (KCOS) Record (KCOS)
Temperature  
Mean Temperature 15 °F 29 °F  
Max Temperature 23 °F 42 °F 67 °F (1955)
Min Temperature 7 °F 17 °F -15 °F (1983)
Degree Days  
Heating Degree Days 50 36  
Month to date heating degree days 882  
Since 1 July heating degree days 2363  
Cooling Degree Days 0 0  
Month to date cooling degree days 0  
Year to date cooling degree days 455  
Moisture  
Dew Point 8 °F    
Average Humidity 81    
Maximum Humidity 95    
Minimum Humidity 56    
Precipitation  
Precipitation 0.00 in 0.01 in 0.19 in (1894)
Month to date precipitation 0.29  
Year to date precipitation 16.49  
Snow  
Snow 0.00 in 0.20 in 2.30 in (1911)
Month to date snowfall 4.7  
Since 1 July snowfall 12.5  
Snow Depth -    
Sea Level Pressure  
Sea Level Pressure 29.98 in    
Wind  
Wind Speed 9 mph (West)    
Max Wind Speed 20 mph    
Max Gust Speed 26 mph    
Visibility 6 miles    
Events Snow    
T = Trace of Precipitation, MM = Missing Value Source: NWS Daily Summary

Daily Weather History Graph

Daily Weather History Graph

Search for Another Location

Airport or City:

Trip Planner

Search our weather history database for the weather conditions in past years. The results will help you decide how hot, cold, wet, or windy it might be!

Date:

Astronomy

Dec. 25, 2012 Rise Set
Actual Time 7:15 AM MST 4:42 PM MST
Civil Twilight 6:45 AM MST 5:12 PM MST
Nautical Twilight 6:11 AM MST 5:45 PM MST
Astronomical Twilight 5:39 AM MST 6:18 PM MST
Moon 2:51 PM MST (12/25) 4:50 AM MST (12/25)
Length of Visible Light 10h 26m
Length of Day
9h 26m
Waxing Gibbous, 94% of the Moon is Illuminated
Dec 25
Waxing Gibbous
Dec 28
Full
Jan 4
Last Quarter
Jan 11
New
Jan 18
First Quarter

Hourly Weather History & Observations

Time (MST) Temp. Windchill Dew Point Humidity Pressure Visibility Wind Dir Wind Speed Gust Speed Precip Events Conditions
12:14 AM 14.9 °F 9.2 °F 13.3 °F 93% 29.80 in 1.2 mi SE 3.5 mph - N/A Snow Light Snow
12:34 AM 14.9 °F - 13.5 °F 94% 29.82 in 1.0 mi Calm Calm - N/A Snow Light Snow
12:54 AM 14.9 °F - 13.3 °F 93% 29.82 in 1.0 mi Calm Calm - N/A Snow Light Snow
1:14 AM 14.9 °F - 13.3 °F 93% 29.83 in 1.5 mi Calm Calm - N/A Snow Light Snow
1:34 AM 14.9 °F - 13.1 °F 93% 29.83 in 2.0 mi Calm Calm - N/A Snow Light Snow
1:54 AM 17.2 °F 6.8 °F 13.3 °F 84% 29.84 in 4.0 mi NNW 8.1 mph - N/A Snow Light Snow
2:14 AM 15.6 °F 4.9 °F 12.6 °F 88% 29.85 in 5.0 mi North 8.1 mph - N/A Snow Light Snow
2:34 AM 16.0 °F 5.3 °F 10.4 °F 79% 29.86 in 10.0 mi North 8.1 mph - N/A   Overcast
2:54 AM 14.5 °F -0.7 °F 9.5 °F 80% 29.86 in 5.0 mi NNW 15.0 mph 21.9 mph N/A Snow Light Snow
3:14 AM 13.8 °F -2.2 °F 8.8 °F 80% 29.87 in 4.0 mi North 16.1 mph 24.2 mph N/A Snow Light Snow
3:34 AM 12.9 °F -2.2 °F 8.2 °F 82% 29.88 in 4.0 mi North 13.8 mph 20.7 mph N/A Snow Light Snow
3:54 AM 11.3 °F -4.3 °F 6.8 °F 82% 29.90 in 5.0 mi North 13.8 mph 21.9 mph N/A Snow Light Snow
4:14 AM 9.7 °F -4.2 °F 5.2 °F 82% 29.91 in 10.0 mi North 10.4 mph - N/A Snow Light Snow
4:34 AM 9.1 °F -4.0 °F 4.8 °F 83% 29.91 in 10.0 mi North 9.2 mph - N/A   Scattered Clouds
4:54 AM 8.6 °F -4.7 °F 4.5 °F 83% 29.91 in 10.0 mi North 9.2 mph - N/A   Scattered Clouds
5:14 AM 7.7 °F -4.8 °F 3.6 °F 83% 29.92 in 10.0 mi North 8.1 mph - N/A   Scattered Clouds
5:34 AM 9.5 °F -7.2 °F 5.0 °F 82% 29.92 in 10.0 mi North 15.0 mph 23.0 mph N/A   Mostly Cloudy
5:54 AM 9.5 °F -8.3 °F 4.6 °F 81% 29.93 in 10.0 mi NNW 17.3 mph 25.3 mph N/A   Overcast
6:14 AM 9.3 °F -8.0 °F 4.1 °F 79% 29.95 in 10.0 mi NNW 16.1 mph 21.9 mph N/A   Overcast
6:34 AM 9.0 °F -7.3 °F 3.6 °F 79% 29.97 in 10.0 mi NNW 13.8 mph 21.9 mph N/A   Overcast
6:54 AM 9.0 °F -9.0 °F 3.4 °F 78% 29.97 in 10.0 mi NNW 17.3 mph 24.2 mph N/A   Overcast
7:14 AM 9.0 °F -10.0 °F 3.4 °F 78% 29.98 in 10.0 mi NNW 19.6 mph 26.5 mph N/A   Overcast
7:34 AM 9.9 °F -8.9 °F 4.1 °F 78% 29.99 in 7.0 mi North 19.6 mph 26.5 mph N/A   Overcast
7:54 AM 10.2 °F -7.9 °F 4.1 °F 76% 30.00 in 4.0 mi North 18.4 mph 26.5 mph N/A   Haze
8:14 AM 10.8 °F -7.7 °F 3.7 °F 73% 30.01 in 7.0 mi North 19.6 mph 25.3 mph N/A   Overcast
8:34 AM 10.2 °F -7.4 °F 3.7 °F 75% 30.02 in 10.0 mi North 17.3 mph 25.3 mph N/A Snow Light Snow
8:54 AM 10.4 °F -6.6 °F 3.7 °F 74% 30.02 in 7.0 mi North 16.1 mph 23.0 mph N/A Snow Light Snow
9:14 AM 10.9 °F -3.4 °F 3.9 °F 73% 30.04 in 7.0 mi North 11.5 mph 19.6 mph N/A Snow Light Snow
9:34 AM 12.6 °F -4.4 °F 4.8 °F 71% 30.05 in 10.0 mi North 17.3 mph 20.7 mph N/A   Overcast
9:54 AM 14.5 °F -0.7 °F 5.7 °F 68% 30.06 in 10.0 mi North 15.0 mph - N/A   Mostly Cloudy
10:14 AM 15.4 °F 1.6 °F 6.1 °F 67% 30.06 in 10.0 mi North 12.7 mph - N/A   Mostly Cloudy
10:34 AM 16.3 °F 2.7 °F 6.1 °F 64% 30.06 in 10.0 mi North 12.7 mph - N/A   Mostly Cloudy
10:54 AM 17.6 °F 5.7 °F 6.6 °F 62% 30.06 in 10.0 mi North 10.4 mph - N/A   Scattered Clouds
11:14 AM 19.9 °F 10.1 °F 8.1 °F 60% 30.05 in 10.0 mi North 8.1 mph - N/A   Clear
11:34 AM 22.6 °F 18.0 °F 9.0 °F 56% 30.04 in 10.0 mi NNW 3.5 mph - N/A   Clear
11:54 AM 22.8 °F 13.6 °F 9.9 °F 58% 30.04 in 10.0 mi South 8.1 mph - N/A   Clear
12:14 PM 22.1 °F 12.8 °F 10.6 °F 61% 30.03 in 10.0 mi SSW 8.1 mph - N/A   Clear
12:34 PM 21.9 °F 15.7 °F 10.2 °F 61% 30.02 in 10.0 mi South 4.6 mph - N/A   Clear
12:54 PM 21.9 °F 13.4 °F 10.4 °F 61% 30.02 in 10.0 mi SSW 6.9 mph - N/A   Clear
1:14 PM 23.0 °F - 11.5 °F 61% 30.02 in 10.0 mi Calm Calm - N/A   Clear
1:34 PM 21.7 °F 15.5 °F 9.5 °F 59% 30.02 in 10.0 mi SSE 4.6 mph - N/A   Clear
1:54 PM 21.9 °F 15.7 °F 10.4 °F 61% 30.02 in 10.0 mi SE 4.6 mph - N/A   Clear
2:14 PM 20.8 °F 12.1 °F 11.1 °F 66% 30.02 in 10.0 mi SE 6.9 mph - N/A   Scattered Clouds
2:34 PM 19.2 °F 12.5 °F 10.6 °F 69% 30.03 in 10.0 mi SE 4.6 mph - N/A   Mostly Cloudy
2:54 PM 19.9 °F 10.1 °F 11.3 °F 69% 30.03 in 10.0 mi South 8.1 mph - N/A   Mostly Cloudy
3:14 PM 18.5 °F 5.5 °F 13.6 °F 81% 30.03 in 10.0 mi SSE 12.7 mph 16.1 mph N/A Snow Light Snow
3:34 PM 17.2 °F 8.9 °F 13.1 °F 84% 30.03 in 7.0 mi South 5.8 mph - N/A Snow Light Snow
3:54 PM 15.8 °F 1.4 °F 13.3 °F 90% 30.03 in 5.0 mi South 13.8 mph - N/A Snow Light Snow
4:14 PM 15.1 °F 0.5 °F 13.1 °F 92% 30.03 in 4.0 mi South 13.8 mph - N/A Snow Light Snow
4:34 PM 14.4 °F 0.2 °F 12.6 °F 93% 30.04 in 3.0 mi South 12.7 mph - N/A Snow Light Snow
4:54 PM 12.4 °F -3.5 °F 11.1 °F 95% 30.04 in 2.0 mi South 15.0 mph - N/A Snow Light Snow
5:14 PM 11.7 °F -3.8 °F 10.2 °F 94% 30.04 in 2.0 mi South 13.8 mph - N/A Snow Light Snow
5:34 PM 11.3 °F -3.6 °F 9.7 °F 93% 30.04 in 3.0 mi South 12.7 mph - N/A Snow Light Snow
5:54 PM 11.3 °F -2.9 °F 9.5 °F 92% 30.04 in 2.0 mi SSW 11.5 mph - N/A Snow Light Snow
6:14 PM 11.1 °F -3.2 °F 9.5 °F 93% 30.04 in 2.0 mi South 11.5 mph - N/A Snow Light Snow
6:34 PM 10.9 °F -2.6 °F 9.3 °F 93% 30.05 in 1.8 mi SSW 10.4 mph - N/A Snow Light Snow
6:54 PM 10.8 °F -4.3 °F 9.0 °F 92% 30.05 in 0.8 mi SSW 12.7 mph - N/A Snow Light Snow
7:14 PM 10.2 °F -4.3 °F 8.4 °F 92% 30.05 in 0.2 mi SSW 11.5 mph - N/A Snow Snow
7:34 PM 9.5 °F -5.2 °F 7.7 °F 92% 30.04 in 1.2 mi South 11.5 mph - N/A Snow Light Snow
7:54 PM 9.5 °F -3.5 °F 7.5 °F 92% 30.04 in 2.0 mi SSW 9.2 mph - N/A Snow Light Snow
8:14 PM 9.3 °F -3.8 °F 7.3 °F 92% 30.03 in 2.0 mi SW 9.2 mph - N/A Snow Light Snow
8:34 PM 9.3 °F -1.7 °F 7.3 °F 92% 30.02 in 2.5 mi SW 6.9 mph - N/A Snow Light Snow
8:54 PM 9.5 °F -0.3 °F 7.5 °F 92% 30.01 in 2.5 mi SW 5.8 mph - N/A Snow Light Snow
9:14 PM 9.3 °F 2.8 °F 7.3 °F 92% 30.00 in 1.8 mi SSW 3.5 mph - N/A Snow Light Snow
9:34 PM 9.1 °F -0.7 °F 7.0 °F 91% 29.98 in 0.5 mi WSW 5.8 mph - N/A Snow Light Snow
9:54 PM 9.0 °F -5.1 °F 6.8 °F 91% 29.98 in 0.8 mi WSW 10.4 mph - N/A Snow Light Snow
10:14 PM 9.0 °F -3.2 °F 6.8 °F 91% 29.98 in 0.8 mi SW 8.1 mph - N/A Snow Light Snow
10:34 PM 8.6 °F -3.7 °F 6.3 °F 90% 29.98 in 0.8 mi WSW 8.1 mph - N/A Snow Light Snow
10:54 PM 8.6 °F -2.6 °F 6.8 °F 92% 29.97 in 0.8 mi WSW 6.9 mph - N/A Snow Light Snow
11:14 PM 9.0 °F -3.2 °F 6.6 °F 90% 29.95 in 0.8 mi WSW 8.1 mph - N/A Snow Light Snow
11:34 PM 8.4 °F -1.6 °F 5.9 °F 89% 29.94 in 2.0 mi West 5.8 mph - N/A Snow Light Snow
11:54 PM 8.6 °F -1.3 °F 6.4 °F 91% 29.93 in 1.0 mi WSW 5.8 mph - N/A Snow Light Snow